| time (UTC) | temp F | wind direction | speed knots | gust knots | rain 1hr in | rain 24hr in | rain mn in | humidity % | barometer mb |
| 20260510054549 | 75 | 119 | 1.7 | 5.2 | 0.00 | 0.92 | 0.00 | 89 | 1012.4 |
| 20260510053058 | 75 | 122 | 1.7 | 7.0 | 0.00 | 0.92 | 0.00 | 88 | 1012.2 |
| 20260510051613 | 75 | 92 | 1.7 | 7.0 | 0.00 | 0.92 | 0.00 | 86 | 1012.3 |
| 20260510050048 | 75 | 94 | 2.6 | 4.3 | 0.00 | 0.92 | 0.00 | 85 | 1012.2 |
| 20260510044555 | 75 | 120 | 0.9 | 1.7 | 0.00 | 0.92 | 0.92 | 84 | 1012.5 |
| 20260510043127 | 76 | 122 | 0.9 | 3.5 | 0.00 | 0.92 | 0.92 | 83 | 1012.7 |
| 20260510041553 | 76 | 118 | 2.6 | 4.3 | 0.00 | 0.92 | 0.92 | 82 | 1012.4 |
| 20260510040052 | 76 | 120 | 0.9 | 3.5 | 0.00 | 0.92 | 0.92 | 81 | 1012.5 |
| 20260510034553 | 76 | 110 | 1.7 | 2.6 | 0.00 | 0.92 | 0.92 | 80 | 1012.4 |
| 20260510033050 | 76 | 123 | 1.7 | 4.3 | 0.00 | 0.92 | 0.92 | 80 | 1012.6 |
| 20260510031613 | 72 | 120 | 0.9 | 2.6 | 0.00 | 0.92 | 0.92 | 87 | 1012.3 |
| 20260510030052 | 71 | 140 | 0.0 | 0.9 | 0.00 | 0.92 | 0.92 | 91 | 1012.2 |
| 20260510024550 | 71 | 0 | 0.0 | 0.9 | 0.00 | 0.92 | 0.92 | 91 | 1011.6 |
| 20260510023053 | 71 | 0 | 0.0 | 0.9 | 0.00 | 0.92 | 0.92 | 91 | 1011.4 |
| 20260510021547 | 71 | 0 | 0.0 | 0.9 | 0.00 | 0.92 | 0.92 | 92 | 1011.1 |
| 20260510020049 | 71 | 122 | 0.9 | 1.7 | 0.00 | 0.92 | 0.92 | 93 | 1010.3 |
| 20260510014544 | 70 | 0 | 0.0 | 0.9 | 0.00 | 0.92 | 0.92 | 94 | 1010.0 |
| 20260510013049 | 70 | 0 | 0.0 | 0.0 | 0.00 | 0.92 | 0.92 | 94 | 1009.8 |
| 20260510011606 | 69 | 149 | 0.0 | 1.7 | 0.04 | 0.92 | 0.92 | 94 | 1009.8 |
| 20260510010104 | 69 | 144 | 0.0 | 0.9 | 0.12 | 0.92 | 0.92 | 94 | 1009.9 |
| 20260510004544 | 69 | 145 | 0.0 | 0.9 | 0.40 | 0.92 | 0.92 | 93 | 1009.5 |
| 20260510003058 | 67 | 0 | 0.0 | 4.3 | 0.65 | 0.92 | 0.92 | 91 | 1009.5 |
| 20260510001552 | 67 | 147 | 0.0 | 9.6 | 0.88 | 0.88 | 0.88 | 91 | 1010.3 |
| 20260510000049 | 68 | 0 | 0.9 | 10.4 | 0.78 | 0.78 | 0.78 | 87 | 1010.5 |
| 20260509234546 | 70 | 148 | 0.9 | 6.1 | 0.50 | 0.50 | 0.50 | 82 | 1010.3 |
| 20260509233047 | 75 | 113 | 0.9 | 12.2 | 0.26 | 0.26 | 0.26 | 69 | 1009.4 |
| 20260509231550 | 84 | 125 | 2.6 | 7.8 | 0.00 | 0.00 | 0.00 | 71 | 1009.2 |
| 20260509230050 | 87 | 109 | 2.6 | 5.2 | 0.00 | 0.00 | 0.00 | 63 | 1008.9 |
| 20260509224551 | 88 | 124 | 0.9 | 1.7 | 0.00 | 0.00 | 0.00 | 59 | 1008.8 |
| 20260509223047 | 89 | 0 | 0.0 | 0.9 | 0.00 | 0.00 | 0.00 | 59 | 1008.7 |
| 20260509221549 | 88 | 0 | 0.0 | 0.9 | 0.00 | 0.00 | 0.00 | 60 | 1008.5 |
| 20260509220052 | 89 | 0 | 0.9 | 1.7 | 0.00 | 0.00 | 0.00 | 58 | 1008.6 |
| 20260509214547 | 90 | 0 | 0.0 | 3.5 | 0.00 | 0.00 | 0.00 | 58 | 1008.8 |
| 20260509213100 | 91 | 147 | 0.0 | 1.7 | 0.00 | 0.00 | 0.00 | 60 | 1008.5 |
| 20260509211608 | 91 | 150 | 0.0 | 1.7 | 0.00 | 0.00 | 0.00 | 59 | 1008.6 |
| 20260509210056 | 90 | 0 | 0.0 | 1.7 | 0.00 | 0.00 | 0.00 | 58 | 1008.9 |
| 20260509204559 | 92 | 139 | 0.0 | 0.9 | 0.00 | 0.00 | 0.00 | 55 | 1009.1 |
| 20260509203055 | 90 | 0 | 0.0 | 3.5 | 0.00 | 0.00 | 0.00 | 57 | 1009.3 |
| 20260509201547 | 90 | 152 | 0.9 | 5.2 | 0.00 | 0.00 | 0.00 | 59 | 1009.4 |
| 20260509200050 | 90 | 136 | 0.0 | 2.6 | 0.00 | 0.00 | 0.00 | 62 | 1009.6 |
| 20260509194550 | 88 | 149 | 1.7 | 6.1 | 0.00 | 0.01 | 0.00 | 62 | 1009.9 |
| 20260509193051 | 87 | 148 | 1.7 | 4.3 | 0.00 | 0.01 | 0.00 | 64 | 1009.9 |
| 20260509191550 | 87 | 167 | 1.7 | 4.3 | 0.00 | 0.01 | 0.00 | 66 | 1009.9 |
| 20260509190049 | 87 | 117 | 0.0 | 2.6 | 0.00 | 0.01 | 0.00 | 65 | 1009.9 |
| 20260509184546 | 85 | 0 | 0.0 | 3.5 | 0.00 | 0.03 | 0.00 | 68 | 1010.1 |
| 20260509183053 | 86 | 149 | 0.9 | 3.5 | 0.00 | 0.03 | 0.00 | 68 | 1010.3 |
| 20260509181604 | 86 | 129 | 0.9 | 4.3 | 0.00 | 0.03 | 0.00 | 66 | 1010.5 |
| 20260509180048 | 85 | 126 | 1.7 | 6.1 | 0.00 | 0.03 | 0.00 | 65 | 1010.9 |
| 20260509174556 | 86 | 133 | 1.7 | 7.8 | 0.00 | 0.06 | 0.00 | 70 | 1011.2 |
| 20260509173047 | 84 | 85 | 2.6 | 6.1 | 0.00 | 0.06 | 0.00 | 72 | 1011.3 |
| 20260509171556 | 83 | 123 | 2.6 | 6.1 | 0.00 | 0.06 | 0.00 | 75 | 1011.6 |
| 20260509170048 | 82 | 0 | 0.0 | 1.7 | 0.00 | 0.06 | 0.00 | 80 | 1011.9 |
| 20260509164547 | 81 | 0 | 0.9 | 2.6 | 0.00 | 0.07 | 0.00 | 84 | 1011.9 |
| 20260509163055 | 80 | 139 | 0.0 | 0.0 | 0.00 | 0.07 | 0.00 | 86 | 1011.9 |
| 20260509161550 | 79 | 149 | 0.9 | 1.7 | 0.00 | 0.07 | 0.00 | 86 | 1011.8 |
| 20260509160046 | 79 | 146 | 0.9 | 1.7 | 0.00 | 0.07 | 0.00 | 86 | 1011.8 |
| 20260509154552 | 79 | 143 | 0.0 | 0.9 | 0.00 | 0.07 | 0.00 | 86 | 1011.7 |
| 20260509153050 | 78 | 0 | 0.0 | 0.9 | 0.00 | 0.07 | 0.00 | 89 | 1011.5 |
| 20260509151545 | 77 | 124 | 0.0 | 0.9 | 0.00 | 0.07 | 0.00 | 90 | 1011.7 |
| 20260509150049 | 77 | 124 | 0.9 | 3.5 | 0.00 | 0.07 | 0.00 | 90 | 1011.6 |
| 20260509144548 | 76 | 128 | 0.0 | 0.9 | 0.00 | 0.07 | 0.00 | 92 | 1011.4 |
| 20260509143054 | 76 | 0 | 0.0 | 0.9 | 0.00 | 0.07 | 0.00 | 94 | 1011.2 |
| 20260509141549 | 75 | 0 | 0.0 | 0.9 | 0.00 | 0.07 | 0.00 | 94 | 1010.8 |
| 20260509140050 | 75 | 0 | 0.0 | 1.7 | 0.00 | 0.07 | 0.00 | 94 | 1010.5 |
| 20260509134554 | 75 | 124 | 0.0 | 1.7 | 0.00 | 0.07 | 0.00 | 95 | 1011.0 |
| 20260509133100 | 75 | 127 | 0.0 | 1.7 | 0.00 | 0.07 | 0.00 | 95 | 1011.5 |
| 20260509131551 | 75 | 0 | 0.0 | 0.9 | 0.00 | 0.07 | 0.00 | 96 | 1011.8 |
| 20260509130049 | 75 | 137 | 0.0 | 0.9 | 0.00 | 0.07 | 0.00 | 96 | 1011.9 |
| 20260509124549 | 74 | 124 | 0.0 | 3.5 | 0.00 | 0.07 | 0.00 | 96 | 1011.2 |
| 20260509123047 | 74 | 0 | 0.0 | 0.9 | 0.00 | 0.07 | 0.00 | 96 | 1011.6 |
| 20260509121549 | 74 | 0 | 0.0 | 0.0 | 0.00 | 0.07 | 0.00 | 96 | 1011.5 |
| 20260509120051 | 74 | 0 | 0.0 | 1.7 | 0.00 | 0.07 | 0.00 | 95 | 1011.5 |
| 20260509114558 | 74 | 152 | 0.9 | 1.7 | 0.00 | 0.07 | 0.00 | 96 | 1011.2 |
| 20260509113047 | 73 | 0 | 0.0 | 0.0 | 0.00 | 0.07 | 0.00 | 95 | 1011.1 |
| 20260509111544 | 74 | 0 | 0.0 | 0.0 | 0.00 | 0.07 | 0.00 | 95 | 1010.8 |
| 20260509110048 | 74 | 0 | 0.0 | 1.7 | 0.00 | 0.07 | 0.00 | 95 | 1010.9 |
| 20260509104549 | 73 | 136 | 0.0 | 0.9 | 0.00 | 0.07 | 0.00 | 95 | 1010.5 |
| 20260509103052 | 73 | 0 | 0.0 | 0.0 | 0.00 | 0.07 | 0.00 | 95 | 1010.6 |
| 20260509101549 | 74 | 0 | 0.0 | 0.0 | 0.00 | 0.07 | 0.00 | 95 | 1010.7 |
| 20260509094547 | 74 | 0 | 0.0 | 0.9 | 0.00 | 0.07 | 0.00 | 95 | 1010.1 |
| 20260509093047 | 74 | 0 | 0.0 | 0.0 | 0.00 | 0.07 | 0.00 | 95 | 1010.1 |
| 20260509091550 | 74 | 136 | 0.0 | 0.9 | 0.00 | 0.07 | 0.00 | 95 | 1010.2 |
| 20260509090046 | 74 | 0 | 0.0 | 0.9 | 0.00 | 0.07 | 0.00 | 95 | 1010.7 |
| 20260509084550 | 74 | 136 | 0.0 | 0.9 | 0.00 | 0.07 | 0.00 | 95 | 1010.6 |
| 20260509083054 | 75 | 0 | 0.0 | 0.9 | 0.00 | 0.07 | 0.00 | 94 | 1010.5 |
| 20260509081550 | 75 | 132 | 0.0 | 0.0 | 0.00 | 0.07 | 0.00 | 94 | 1010.3 |
| 20260509080129 | 75 | 0 | 0.0 | 0.9 | 0.00 | 0.07 | 0.00 | 94 | 1010.2 |
| 20260509074550 | 75 | 122 | 0.9 | 3.5 | 0.00 | 0.07 | 0.00 | 94 | 1010.3 |
| 20260509073149 | 75 | 118 | 1.7 | 5.2 | 0.00 | 0.07 | 0.00 | 94 | 1010.2 |
| 20260509071551 | 74 | 124 | 0.0 | 0.9 | 0.00 | 0.07 | 0.00 | 94 | 1010.7 |
| 20260509070051 | 74 | 126 | 0.0 | 1.7 | 0.00 | 0.07 | 0.00 | 94 | 1010.9 |
| 20260509064552 | 74 | 0 | 0.0 | 0.0 | 0.00 | 0.07 | 0.00 | 94 | 1011.2 |
| 20260509063052 | 74 | 0 | 0.0 | 0.0 | 0.00 | 0.07 | 0.00 | 94 | 1011.0 |
| 20260509061556 | 74 | 0 | 0.0 | 0.0 | 0.00 | 0.07 | 0.00 | 94 | 1011.0 |
| 20260509060051 | 74 | 0 | 0.0 | 0.0 | 0.00 | 0.07 | 0.00 | 94 | 1011.1 |